[[{"header":{"parameterUnit":"m.s-1","parameterCategory":1,"la1":30.2991,"la2":30.254,"lo1":-89.0895,"lo2":-89.0444,"dy":0.0017,"dx":0.0017,"nx":28,"ny":28,"refTime":"2025-08-26T03:00:00:Z","depth":0,"parameterNumber":2,"parameterNumberName":"U-component_of_WINDS"},"data":[0,0,0,0,0,0,0,0,0,0,0,0,0,0,0,0,0,0,0,0,0,0,0,0,0,0,0,0,0,0,0,0,0,0,0,0,0,0,0,0,0,0,0,0,0,0,0,0,0,0,0,0,0,0,0,0,0,0,-2.9071,-2.9071,0,-2.907,-2.907,-2.907,-2.8997,-2.8995,-2.8993,-2.8991,-2.8992,-2.8994,-2.8996,0,0,0,0,0,0,0,0,0,0,0,0,0,-2.901,-2.9011,-2.9071,-2.9071,-2.9071,-2.907,-2.907,-2.907,-2.8997,-2.8995,-2.8993,-2.8991,-2.8992,-2.8994,-2.8996,0,0,0,0,0,0,0,0,0,0,0,0,0,-2.9025,-2.9012,-2.9071,-2.9034,-2.9031,-2.907,-2.907,-2.907,-2.8998,-2.8995,-2.8992,-2.899,-2.8991,-2.8993,-2.8996,-2.907,0,0,-2.9004,-2.9006,0,0,0,0,0,0,0,0,-2.9025,-2.9028,-2.904,-2.9037,-2.9033,-2.9031,-2.9049,-2.907,-2.8999,-2.9011,-2.8991,-2.8988,-2.9007,-2.9009,-2.9015,-2.907,-2.907,-2.9005,-2.9006,-2.9007,-2.9008,0,0,0,0,0,0,0,-2.9024,-2.9027,-2.907,-2.904,-2.9036,-2.9018,-2.9017,-2.9053,-2.9025,-2.9009,-2.9004,-2.9005,-2.9005,-2.9012,-2.9014,-2.907,-2.9005,-2.9007,-2.9009,-2.901,-2.9188,-2.9191,0,0,0,0,0,0,-2.9027,-2.9027,-2.907,-2.907,-2.9022,-2.9022,-2.9021,-2.9034,-2.9025,-2.902,-2.9007,-2.9001,-2.9009,-2.9011,-2.9014,-2.9101,-2.9007,-2.901,-2.9011,-2.9185,-2.9188,-2.9192,0,0,0,0,0,0,-2.9026,-2.9032,-2.907,-2.9047,-2.9051,-2.9026,-2.9042,-2.9036,-2.9043,-2.9023,-2.9018,-2.902,-2.9007,-2.901,-2.9057,-2.91,-2.9011,-2.9014,-2.9181,-2.9186,-2.919,-2.9275,0,0,0,0,0,0,-2.9025,-2.9032,-2.906,-2.9048,-2.9052,-2.9113,-2.9045,-2.9038,-2.9048,-2.904,-2.9033,-2.9029,-2.9005,-2.9053,-2.906,-2.9102,-2.9016,-2.9177,-2.9183,-2.9188,-2.9268,-2.9282,-2.9293,0,0,0,0,0,-2.9023,-2.9084,-2.9061,-2.9067,-2.9086,-2.9116,-2.9118,-2.9088,-2.9052,-2.9079,-2.9067,-2.903,-2.9094,-2.9059,-2.9065,-2.9109,-2.9174,-2.9181,-2.9188,-2.9262,-2.9279,-2.9293,0,0,0,0,0,0,-2.9101,-2.9081,-2.9057,-2.9115,-2.9118,-2.9104,-2.9138,-2.9107,-2.912,-2.9113,-2.9075,-2.9075,-2.9127,-2.9123,-2.9084,-2.9181,-2.9128,-2.9136,-2.9182,-2.9198,-2.921,-2.921,-2.9018,0,0,0,0,0,-2.9125,-2.915,-2.9132,-2.9185,-2.9188,-2.9163,-2.9175,-2.9152,-2.9153,-2.9154,-2.9144,-2.9147,-2.9168,-2.9182,-2.92,-2.9267,-2.9265,-2.93,-2.9313,-2.9323,-2.9332,-2.9367,-2.9383,-2.9215,-2.9215,-2.9214,0,0,-2.9174,-2.9167,-2.9185,-2.9201,-2.92,-2.9228,-2.9164,-2.9196,-2.9216,-2.9158,-2.9202,-2.9195,-2.9196,-2.9253,-2.9278,-2.9251,-2.9378,-2.9332,-2.9341,-2.9343,-2.9376,-2.9392,-2.9406,-2.9219,-2.9218,-2.9218,0,0,-2.9279,-2.9276,-2.9321,-2.9321,-2.9321,-2.9304,-2.9315,-2.9305,-2.9298,-2.9342,-2.9299,-2.9323,-2.9359,-2.9362,-2.9368,-2.9475,-2.9441,-2.9481,-2.9548,-2.9583,-2.9597,-2.9608,-2.9647,-2.9661,-2.9489,-2.949,-2.949,0,-2.9341,-2.9381,-2.9348,-2.9382,-2.9391,-2.934,-2.9385,-2.9387,-2.9393,-2.94,-2.9369,-2.9415,-2.9411,-2.9469,-2.9495,-2.9502,-2.9513,-2.9482,-2.9597,-2.9609,-2.9619,-2.9656,-2.967,-2.9495,-2.9494,-2.9493,-2.9493,0,-2.9458,-2.9486,-2.9522,-2.9529,-2.9541,-2.9581,-2.9554,-2.9571,-2.9547,-2.9533,-2.9578,-2.9573,-2.9589,-2.9601,-2.9578,-2.9656,-2.9639,-2.9604,-2.955,-2.9641,-2.9674,-2.9688,-2.9502,-2.95,-2.9498,-2.9497,0,0,-2.9611,-2.96,-2.9613,-2.9616,-2.9612,-2.9634,-2.9671,-2.9687,-2.9703,-2.9708,-2.974,-2.9772,-2.9739,-2.9746,-2.9723,-2.9754,-2.984,-2.9714,-2.9714,-2.9739,-2.9926,-2.9953,-2.997,-2.9817,-2.982,-2.9822,-2.9926,0,-2.9714,-2.9777,-2.9749,-2.9816,-2.9842,-2.9794,-2.9827,-2.9828,-2.9817,-2.9837,-2.9824,-2.9848,-2.9803,-2.9807,-2.9835,-2.9823,-2.9877,-2.9815,-2.9847,-2.9849,-2.9849,-2.9987,-3.0016,-3.0115,-2.9939,-2.9941,-2.9943,0,-2.9841,-2.9852,-2.9922,-2.9914,-2.9924,-2.9954,-2.9967,-2.9987,-2.9988,-2.9977,-2.9986,-2.9955,-2.9992,-2.9939,-2.999,-2.9948,-2.996,-2.9956,-2.9959,-2.9961,-2.9902,-2.9994,-3.0145,-3.0161,-2.9963,-2.9962,-2.996,0,-2.9948,-2.998,-3.0026,-3.003,-3.0021,-3.0044,-3.0041,-3.0039,-3.0051,-3.0062,-3.0069,-3.0085,-3.0093,-3.0106,-3.0081,-3.0044,-3.0136,-3.008,-3.0129,-3.013,-3.0151,-3.015,-3.0307,-3.0158,-3.0157,-3.0157,-3.0157,0,-3.0065,-3.011,-3.0074,-3.0102,-3.0151,-3.0118,-3.0167,-3.016,-3.0158,-3.0185,-3.0144,-3.017,-3.0135,-3.0158,-3.0139,-3.0184,-3.0188,-3.0182,-3.0176,-3.0186,-3.0187,-3.0193,-3.0186,-3.0161,-3.016,-3.0159,-3.0159,0,-3.0192,-3.017,-3.0217,-3.0205,-3.0203,-3.024,-3.023,-3.0256,-3.0242,-3.0276,-3.0282,-3.026,-3.0284,-3.0261,-3.0284,-3.0271,-3.0332,-3.0316,-3.0332,-3.0328,-3.0379,-3.0375,-3.0546,-3.0567,-3.0403,-3.0405,-3.0406,0,-3.0269,-3.0302,-3.0294,-3.0309,-3.0309,-3.0333,-3.0345,-3.0314,-3.0327,-3.0331,-3.0357,-3.0378,-3.0394,-3.0435,-3.0422,-3.0439,-3.0424,-3.0483,-3.0427,-3.0435,-3.0426,-3.0425,-3.0428,-3.0495,-3.0496,-3.0498,-3.0499,0,-3.0408,-3.0395,-3.0413,-3.0428,-3.0443,-3.0453,-3.046,-3.0475,-3.0443,-3.046,-3.0485,-3.0497,-3.0521,-3.0543,-3.0556,-3.0554,-3.0522,-3.0517,-3.053,-3.054,-3.0548,-3.0545,-3.0364,-3.0513,-3.0512,-3.0511,-3.051,-3.051,-3.0512,-3.054,-3.0539,-3.0561,-3.0563,-3.057,-3.0595,-3.0583,-3.0603,-3.062,-3.06,-3.0631,-3.0632,-3.0646,-3.0648,-3.0672,-3.0647,-3.0665,-3.067,-3.0675,-3.0683,-3.0544,-3.0674,-3.0674,-3.0673,-3.0673,-3.0673,0,-3.065,-3.0647,-3.0667,-3.0678,-3.0696,-3.0664,-3.067,-3.0687,-3.0714,-3.0717,-3.0733,-3.0762,-3.0783,-3.0771,-3.0789,-3.0811,-3.0797,-3.0817,-3.0815,-3.0815,-3.0703,-3.0691,-3.0828,-3.0828,-3.0828,-3.0828,-3.0828,-3.0828,-3.0723,-3.0769,-3.0756,-3.0803,-3.0799,-3.0828,-3.0835,-3.0842,-3.0844,-3.0878,-3.0896,-3.0887,-3.0885,-3.0903,-3.0921,-3.0917,-3.0926,-3.0952,-3.0943,-3.0838,-3.0823,-3.0809,-3.0797,-3.0954,-3.0954,-3.1052,-3.1053,-3.1054]},{"header":{"parameterUnit":"m.s-1","parameterCategory":1,"la1":30.2991,"la2":30.254,"lo1":-89.0895,"lo2":-89.0444,"dy":0.0017,"dx":0.0017,"nx":28,"ny":28,"refTime":"2025-08-26T03:00:00:Z","depth":0,"parameterNumber":3,"parameterNumberName":"V-component_of_WINDS"},"data":[0,0,0,0,0,0,0,0,0,0,0,0,0,0,0,0,0,0,0,0,0,0,0,0,0,0,0,0,0,0,0,0,0,0,0,0,0,0,0,0,0,0,0,0,0,0,0,0,0,0,0,0,0,0,0,0,0,0,-1.193,-1.1931,0,-1.1961,-1.1961,-1.1962,-1.1945,-1.1944,-1.1944,-1.1943,-1.1976,-1.1978,-1.1979,0,0,0,0,0,0,0,0,0,0,0,0,0,-1.1858,-1.186,-1.193,-1.1931,-1.1931,-1.1961,-1.1961,-1.1962,-1.1945,-1.1944,-1.1943,-1.1942,-1.1976,-1.1978,-1.198,0,0,0,0,0,0,0,0,0,0,0,0,0,-1.1889,-1.186,-1.193,-1.1926,-1.1926,-1.1961,-1.1961,-1.1962,-1.1946,-1.1944,-1.1943,-1.1942,-1.1975,-1.1977,-1.198,-1.202,0,0,-1.1987,-1.1989,0,0,0,0,0,0,0,0,-1.1888,-1.1892,-1.1927,-1.1927,-1.1927,-1.1948,-1.1948,-1.1982,-1.1946,-1.1938,-1.1943,-1.1941,-1.1968,-1.1971,-1.1979,-1.2022,-1.2023,-1.1988,-1.1989,-1.199,-1.1991,0,0,0,0,0,0,0,-1.1885,-1.1891,-1.1942,-1.1927,-1.1927,-1.1923,-1.1926,-1.1954,-1.196,-1.1939,-1.1938,-1.1942,-1.1968,-1.1977,-1.198,-1.2024,-1.1988,-1.199,-1.1991,-1.1992,-1.2101,-1.2103,0,0,0,0,0,0,-1.1883,-1.1889,-1.1941,-1.1943,-1.1904,-1.1926,-1.1929,-1.1942,-1.1959,-1.1961,-1.1943,-1.1941,-1.1973,-1.1977,-1.1981,-1.2031,-1.199,-1.1993,-1.1994,-1.21,-1.2102,-1.2103,0,0,0,0,0,0,-1.1882,-1.1888,-1.194,-1.1916,-1.1922,-1.1928,-1.1943,-1.1944,-1.1953,-1.1962,-1.1963,-1.1951,-1.1973,-1.1978,-1.2011,-1.2031,-1.1994,-1.1996,-1.2098,-1.21,-1.2102,-1.2129,0,0,0,0,0,0,-1.188,-1.1888,-1.1903,-1.1916,-1.1923,-1.1969,-1.1945,-1.1945,-1.1957,-1.1955,-1.1971,-1.1972,-1.1972,-1.2007,-1.2013,-1.2034,-1.1998,-1.2097,-1.2099,-1.2102,-1.2126,-1.2132,-1.2136,0,0,0,0,0,-1.1877,-1.191,-1.1904,-1.191,-1.1943,-1.197,-1.1974,-1.1973,-1.1959,-1.1975,-1.198,-1.1972,-1.2028,-1.2011,-1.2017,-1.2039,-1.2095,-1.2098,-1.2102,-1.2124,-1.2131,-1.2136,0,0,0,0,0,0,-1.19,-1.1912,-1.1905,-1.1943,-1.1956,-1.1967,-1.1987,-1.198,-1.1998,-1.1995,-1.1993,-1.1997,-1.2032,-1.2038,-1.2019,-1.208,-1.2059,-1.2064,-1.2074,-1.2081,-1.2085,-1.2084,-1.2,0,0,0,0,0,-1.1909,-1.193,-1.1939,-1.1971,-1.1978,-1.1981,-1.1993,-1.1991,-1.2005,-1.201,-1.2018,-1.2032,-1.2053,-1.2067,-1.2086,-1.2126,-1.213,-1.2145,-1.215,-1.2154,-1.2159,-1.2181,-1.2188,-1.2113,-1.2113,-1.2113,0,0,-1.1929,-1.1937,-1.1951,-1.1976,-1.1986,-1.2008,-1.1986,-1.2011,-1.2027,-1.2014,-1.2046,-1.2052,-1.2067,-1.2104,-1.2121,-1.2111,-1.218,-1.2158,-1.2161,-1.2164,-1.2185,-1.2192,-1.2198,-1.2116,-1.2115,-1.2115,0,0,-1.1976,-1.1984,-1.2012,-1.2022,-1.2037,-1.2039,-1.2045,-1.2058,-1.2061,-1.2093,-1.2084,-1.2103,-1.2139,-1.215,-1.2161,-1.2211,-1.2204,-1.2217,-1.2244,-1.2266,-1.2272,-1.2277,-1.2296,-1.2303,-1.2221,-1.2221,-1.2221,0,-1.1999,-1.2032,-1.2028,-1.2053,-1.2065,-1.2052,-1.2081,-1.2091,-1.2111,-1.212,-1.2108,-1.2152,-1.2161,-1.2201,-1.2213,-1.2221,-1.223,-1.2216,-1.2271,-1.2276,-1.2281,-1.2299,-1.2306,-1.2223,-1.2223,-1.2222,-1.2222,0,-1.2059,-1.2082,-1.2103,-1.2123,-1.2136,-1.2163,-1.2163,-1.2178,-1.2174,-1.2177,-1.2209,-1.222,-1.2241,-1.225,-1.2247,-1.2289,-1.2283,-1.2271,-1.2251,-1.229,-1.2307,-1.2314,-1.2225,-1.2225,-1.2224,-1.2224,0,0,-1.2124,-1.214,-1.2148,-1.2157,-1.2171,-1.2189,-1.2214,-1.2235,-1.2248,-1.2261,-1.2284,-1.2313,-1.2302,-1.2314,-1.2312,-1.2331,-1.2371,-1.2317,-1.2317,-1.2328,-1.242,-1.243,-1.2438,-1.2365,-1.2366,-1.2367,-1.2419,0,-1.2174,-1.2219,-1.2216,-1.2259,-1.228,-1.2268,-1.229,-1.2302,-1.2305,-1.2324,-1.2327,-1.2349,-1.2332,-1.2339,-1.2357,-1.2362,-1.239,-1.2358,-1.2387,-1.2388,-1.2386,-1.2446,-1.2457,-1.2505,-1.2425,-1.2426,-1.2427,0,-1.2238,-1.2254,-1.2298,-1.2309,-1.2318,-1.2339,-1.2357,-1.2374,-1.2387,-1.2388,-1.2401,-1.2395,-1.2421,-1.2399,-1.2436,-1.2415,-1.2426,-1.243,-1.2432,-1.2436,-1.2412,-1.2454,-1.252,-1.2528,-1.2437,-1.2437,-1.2436,0,-1.2282,-1.2314,-1.2345,-1.2353,-1.2366,-1.2381,-1.2387,-1.2398,-1.241,-1.2426,-1.2434,-1.2453,-1.2464,-1.2479,-1.2478,-1.2462,-1.2516,-1.2493,-1.2519,-1.2519,-1.2533,-1.2532,-1.2604,-1.2537,-1.2537,-1.2537,-1.2536,0,-1.2339,-1.2367,-1.2366,-1.2385,-1.2416,-1.2412,-1.2443,-1.2448,-1.2457,-1.2478,-1.2468,-1.2487,-1.2484,-1.2504,-1.2503,-1.2535,-1.2539,-1.2542,-1.2542,-1.2544,-1.2544,-1.2553,-1.255,-1.2539,-1.2538,-1.2538,-1.2537,0,-1.2395,-1.2395,-1.2428,-1.2437,-1.244,-1.2463,-1.2471,-1.2489,-1.2491,-1.2517,-1.2522,-1.2525,-1.2548,-1.2548,-1.2574,-1.2573,-1.2612,-1.2607,-1.2608,-1.2608,-1.2633,-1.2632,-1.2715,-1.2726,-1.265,-1.2651,-1.2652,0,-1.2432,-1.2454,-1.2465,-1.2477,-1.2484,-1.2505,-1.2517,-1.2513,-1.2526,-1.2541,-1.2558,-1.2579,-1.2596,-1.2632,-1.2637,-1.2657,-1.2654,-1.2681,-1.2657,-1.2658,-1.2656,-1.2655,-1.2658,-1.2687,-1.2688,-1.2688,-1.2689,0,-1.2499,-1.2497,-1.2515,-1.2533,-1.2547,-1.2561,-1.2574,-1.2585,-1.2582,-1.2598,-1.262,-1.2633,-1.2659,-1.268,-1.2699,-1.2706,-1.2698,-1.2696,-1.2703,-1.2707,-1.2707,-1.2709,-1.2623,-1.2695,-1.2694,-1.2694,-1.2694,-1.2693,-1.2548,-1.2566,-1.2577,-1.2597,-1.2606,-1.2618,-1.2635,-1.2639,-1.2657,-1.2677,-1.2674,-1.2699,-1.271,-1.2734,-1.2743,-1.2763,-1.2753,-1.2763,-1.2766,-1.2769,-1.2773,-1.2702,-1.2766,-1.2766,-1.2765,-1.2765,-1.2765,0,-1.2615,-1.2621,-1.2639,-1.2657,-1.2673,-1.2662,-1.2675,-1.2689,-1.2711,-1.2722,-1.2739,-1.2764,-1.2785,-1.2791,-1.281,-1.2825,-1.2822,-1.2831,-1.2831,-1.2833,-1.2779,-1.2772,-1.2833,-1.2833,-1.2833,-1.2833,-1.2833,-1.2833,-1.2652,-1.2683,-1.2682,-1.2718,-1.2723,-1.2748,-1.2756,-1.2767,-1.2776,-1.2805,-1.2822,-1.2825,-1.2834,-1.2854,-1.2872,-1.2873,-1.2882,-1.2893,-1.2893,-1.2843,-1.2836,-1.283,-1.2823,-1.2894,-1.2894,-1.2944,-1.2945,-1.2945]}]]